Theta_e
320 321 322 322 322 323 320 321 322 322 323 322 321 320 319 316 316 317 316 315 315 312 310 310 308 307 306 305 304 304 304 304 299 291 292 291 289 288 288 287 286 284 284
318 319 319 318 317 318 319 315 317 318 315 316 315 314 311 308 310 311 310 309 310 308 306 304 304 301 301 301 301 300 300 299 297 290 288 287 287 287 286 284 284 285 283
310 312 309 310 312 312 310 306 305 307 305 305 306 306 306 306 306 306 306 305 304 304 302 301 300 299 296 295 296 295 294 291 291 288 285 286 285 285 282 282 282 281 282
307 308 307 306 307 305 302 301 300 301 301 300 301 300 299 301 300 298 298 299 299 298 297 297 296 296 295 294 292 291 288 287 286 285 282 282 283 282 280 280 280 279 279
305 305 304 301 301 300 298 298 297 297 296 296 296 296 296 297 295 295 295 295 294 292 292 292 293 291 291 292 289 287 286 285 281 281 280 281 281 280 280 280 279 278 277
302 301 298 298 297 295 295 293 292 291 291 290 290 291 292 290 294 295 293 292 291 289 288 287 288 286 288 289 289 289 286 283 280 280 279 280 281 281 281 279 278 274 271
297 296 296 294 293 292 290 290 289 289 288 288 289 290 290 290 293 293 292 290 289 289 287 286 286 286 286 287 290 290 288 289 287 283 281 281 281 282 281 278 276 274 272
292 293 292 292 291 289 290 289 287 287 288 288 288 288 288 288 293 292 289 288 287 287 286 285 285 284 284 284 283 283 283 282 282 283 282 282 282 282 281 279 276 272 272
291 292 291 293 291 289 289 288 286 286 285 284 283 281 281 282 291 290 287 283 284 283 283 283 283 283 286 287 282 279 279 280 283 285 284 284 285 284 281 275 268 269 268
292 291 291 290 290 289 288 286 284 284 282 281 280 277 278 278 290 290 285 282 279 280 282 282 282 281 287 288 280 277 273 277 277 275 278 282 283 282 283 277 274 269 268
288 287 286 287 288 288 285 282 282 279 281 282 281 280 278 277 283 289 287 282 280 278 278 278 280 286 287 288 286 278 278 278 276 272 273 275 276 276 276 276 275 272 267
287 286 285 284 283 283 283 281 279 279 278 280 280 279 280 277 281 288 288 285 284 276 277 278 280 286 287 288 286 286 286 283 269 267 267 269 271 273 274 274 273 273 273
286 285 283 281 281 282 281 279 278 277 277 278 279 279 278 277 276 287 288 287 286 278 278 281 283 285 287 285 287 287 278 270 268 273 267 270 272 274 273 271 271 271 270
285 283 282 280 278 279 280 280 279 278 276 276 275 274 274 275 274 275 277 277 282 280 281 276 281 283 284 281 276 277 273 270 269 268 269 270 271 269 268 270 267 267 264
283 281 281 280 279 277 277 279 278 275 278 275 273 274 272 271 275 280 277 272 271 275 271 268 268 268 271 273 272 271 271 268 268 267 267 268 269 269 269 269 267 265 265
280 280 279 278 278 278 278 277 283 282 284 283 282 277 272 281 284 284 285 285 284 283 275 269 268 269 270 271 272 273 271 270 270 269 269 269 269 269 269 265 268 264 265
281 278 277 277 278 277 277 278 276 280 285 285 285 285 284 283 284 285 285 285 285 284 279 277 275 272 272 273 274 273 272 272 271 269 270 270 268 269 269 268 268 267 266
278 278 278 277 277 276 276 274 275 276 273 268 278 280 283 284 284 284 284 283 276 277 280 279 278 277 276 276 275 274 272 270 268 269 269 269 269 269 268 267 267 267 267
277 276 276 275 274 273 272 271 271 271 269 265 265 273 273 280 282 283 283 279 279 278 277 278 278 278 276 274 274 275 274 273 271 270 267 268 269 268 267 268 268 267 267
274 275 275 274 273 272 272 271 270 270 268 267 267 266 268 272 272 270 271 270 271 273 272 273 275 276 278 278 275 273 272 270 271 271 270 269 267 268 268 267 267 266 266
274 273 272 272 272 271 270 270 269 269 268 264 266 267 275 272 271 272 270 266 267 269 270 271 271 271 271 270 269 269 268 268 268 269 268 267 265 266 267 268 267 265 265
272 271 271 270 270 269 268 269 269 269 270 269 268 270 274 268 268 266 264 263 264 265 267 266 265 266 265 265 265 263 262 263 263 265 268 267 268 267 266 266 264 264 264
270 269 268 267 268 267 267 267 269 266 268 267 264 263 262 264 262 262 261 260 259 260 261 259 258 258 258 257 256 258 259 262 265 263 265 266 264 264 264 265 264 264 263
268 267 267 267 267 267 267 266 266 266 264 263 260 261 258 256 258 258 257 257 257 255 255 256 256 256 256 256 256 256 256 256 258 260 260 263 262 261 261 263 264 264 263
266 266 265 265 265 265 265 264 262 261 260 260 257 256 255 256 256 255 255 255 255 254 255 255 256 256 255 254 254 253 254 260 258 257 256 257 260 260 261 262 263 262 262
263 263 262 262 261 261 260 260 259 259 257 256 255 255 255 255 255 255 254 253 254 253 254 254 255 253 252 253 253 257 262 264 261 260 260 260 260 259 259 260 261 261 261
Wind_Speed
16 16 14 13 13 12 11 11 11 8 9 8 7 6 6 5 5 4 4 5 6 5 3 5 5 4 3 3 1 1 3 3 3 1 2 2 4 5 3 2 2 2 2
15 14 14 11 10 11 11 9 8 9 6 7 7 6 6 6 5 5 5 4 5 5 3 3 3 2 3 2 3 4 3 2 3 4 2 2 2 2 2 3 3 2 3
11 11 8 9 10 10 9 7 7 7 6 6 5 7 6 7 6 3 2 2 2 3 4 3 4 5 4 3 2 3 3 2 3 3 3 1 2 2 1 1 2 2 3
10 11 11 11 10 9 8 8 7 7 7 6 6 6 5 5 5 4 3 4 4 3 2 3 4 5 5 5 4 4 3 4 3 3 2 2 1 2 2 2 2 1 2
11 11 11 9 9 9 8 8 7 7 6 6 7 5 5 4 4 5 5 4 4 4 3 3 2 3 5 5 4 4 5 3 2 2 2 2 2 2 3 3 2 1 2
10 9 9 10 10 9 9 8 8 7 7 7 6 6 5 3 7 8 7 5 5 5 5 4 3 4 6 7 6 8 7 6 3 4 2 3 3 2 2 2 2 1 3
9 9 10 10 10 9 8 8 7 7 6 6 6 6 5 4 7 9 9 5 5 5 5 5 3 3 4 5 7 8 6 6 3 4 4 4 3 5 4 3 3 3 3
8 9 9 10 10 9 9 8 7 5 6 5 5 5 4 3 7 8 8 6 4 4 4 5 5 5 4 6 6 5 4 3 2 1 2 3 3 3 4 4 4 2 1
10 11 11 11 11 10 9 8 5 5 3 3 3 5 4 2 8 9 8 5 5 4 4 5 5 6 8 9 5 4 3 2 0 1 1 3 5 7 8 5 1 3 2
11 11 11 10 11 10 9 8 4 4 4 4 5 4 4 3 8 9 6 4 4 2 2 2 4 4 7 8 4 5 3 3 3 0 2 1 3 4 8 2 3 3 2
8 9 10 10 11 10 9 3 6 6 7 6 6 4 4 2 4 8 9 3 4 3 2 1 1 7 8 9 8 4 4 3 2 2 0 0 1 0 0 2 4 4 3
10 10 9 8 7 8 10 6 7 8 7 6 6 4 2 1 1 6 8 6 6 4 3 2 3 7 8 9 6 6 6 3 2 2 1 1 1 3 3 3 3 3 3
11 10 8 8 7 8 10 9 7 7 6 6 5 4 3 1 1 4 6 5 6 3 2 4 6 7 8 6 8 8 1 3 2 1 3 3 3 3 2 1 3 2 3
12 12 10 10 8 7 6 6 7 7 5 5 4 4 3 1 1 0 1 0 2 3 1 2 2 3 4 3 2 3 2 3 3 2 2 2 1 1 2 2 2 2 1
11 10 10 8 9 7 5 5 5 3 4 5 3 4 4 3 4 7 5 2 2 3 3 3 2 2 2 2 1 1 1 1 1 2 2 3 4 4 4 2 3 1 5
12 9 8 8 7 7 7 6 8 9 10 8 11 6 1 4 5 6 6 6 6 8 2 2 1 1 2 2 2 2 2 3 4 4 5 5 6 5 5 3 4 3 6
13 11 8 8 7 8 7 8 9 6 11 10 9 8 7 6 5 3 3 5 8 6 2 4 3 4 3 3 4 3 3 5 5 4 5 5 5 5 5 5 5 6 6
13 13 9 8 7 6 6 6 6 8 6 2 7 8 7 6 4 5 5 4 1 1 2 3 3 4 4 5 5 5 4 3 3 5 5 5 5 5 4 5 5 6 6
11 9 8 7 6 7 6 6 5 6 5 4 2 4 4 5 5 5 2 3 3 3 3 3 3 2 3 4 4 4 5 4 4 4 3 4 5 4 5 5 6 7 7
10 14 11 8 8 7 6 7 6 5 5 4 3 2 0 1 1 2 3 2 1 1 2 1 1 1 3 3 2 2 3 3 4 4 4 4 3 4 6 6 5 6 6
8 8 11 7 7 6 6 6 5 5 4 2 2 1 6 3 2 3 3 3 3 3 3 4 4 4 4 5 4 3 3 3 3 3 3 4 3 4 5 6 5 5 5
9 8 7 6 5 6 6 5 5 5 4 5 2 5 8 3 3 3 2 3 4 3 4 3 3 3 3 2 2 2 2 3 3 3 5 4 5 5 3 4 4 5 6
9 9 8 6 7 7 6 5 5 4 5 4 3 3 3 4 3 3 3 3 3 3 3 3 2 3 3 2 1 1 1 3 3 2 5 6 3 4 4 6 6 6 6
9 9 8 7 6 6 5 4 4 7 5 4 3 4 3 2 2 2 1 1 2 3 3 2 1 2 3 3 2 2 2 3 3 3 5 5 4 3 3 5 6 7 8
8 8 7 6 6 5 5 4 5 5 3 3 3 2 2 2 1 1 2 1 2 2 2 3 3 3 4 5 5 5 5 8 5 5 3 3 5 6 6 6 8 6 7
8 8 6 5 6 4 4 4 4 3 1 2 2 1 1 1 2 2 2 2 2 3 3 2 4 7 6 5 5 8 9 10 8 8 5 4 5 4 3 6 8 7 7
Wind_Direction
193 194 196 200 194 188 186 196 197 192 191 189 184 178 180 182 156 179 198 201 205 195 195 205 207 167 191 159 172 244 171 152 142 117 105 101 138 154 151 156 153 177 229
192 190 196 188 174 180 190 178 172 185 171 167 162 162 144 143 155 174 184 196 191 194 200 204 222 116 180 148 186 190 174 122 125 137 113 118 123 137 181 191 205 216 226
170 172 163 169 174 181 171 154 147 142 142 133 139 153 160 170 162 182 185 200 182 180 191 197 199 184 173 170 187 136 122 110 83 112 128 117 121 144 181 215 206 260 272
162 164 164 165 165 156 143 143 143 139 141 140 146 153 166 151 142 129 130 157 169 150 129 183 183 183 177 169 158 142 122 116 116 117 118 137 143 103 117 181 231 229 264
162 162 166 147 135 130 131 132 128 135 140 136 135 131 127 127 133 146 160 168 143 116 104 103 116 137 150 157 153 158 134 111 91 87 91 124 160 158 191 169 194 202 268
154 153 137 136 136 139 137 138 129 127 130 127 132 140 139 143 159 157 151 145 142 153 142 120 130 128 137 142 130 146 144 140 139 135 155 184 197 185 165 167 156 154 278
137 139 142 138 138 140 135 131 136 141 132 135 135 139 155 144 160 157 155 138 143 149 153 155 147 105 128 128 121 116 110 112 109 153 156 196 228 193 151 152 182 174 216
137 142 141 142 139 140 138 137 132 136 137 139 147 149 141 161 159 150 141 123 134 149 147 141 155 154 151 141 132 123 107 79 75 115 190 227 218 163 161 169 168 155 340
159 158 154 148 148 147 146 141 130 127 113 119 130 138 128 139 148 148 128 113 131 149 167 175 170 166 176 163 130 145 146 166 65 214 224 191 189 175 152 124 137 109 282
175 164 153 154 152 149 141 141 119 114 120 113 106 98 123 142 157 152 128 123 119 140 176 171 175 180 187 176 155 160 184 231 198 71 26 207 182 181 179 170 142 163 198
140 140 148 149 148 141 135 122 127 116 118 105 104 107 114 123 147 148 146 140 159 145 147 162 330 209 200 204 193 186 208 141 251 136 117 20 348 329 169 155 187 168 182
138 148 142 140 126 130 141 120 116 122 124 129 131 119 95 24 148 152 167 170 163 141 183 167 199 217 228 237 237 234 238 252 94 78 51 290 236 241 236 223 215 219 235
140 140 134 117 124 135 138 135 125 119 137 153 152 150 154 227 51 170 165 172 171 142 172 206 215 225 232 242 250 253 239 94 109 223 229 230 206 223 199 217 209 224 250
146 140 137 136 125 122 119 136 139 144 143 149 152 162 163 141 114 44 85 142 219 118 116 33 336 286 248 250 342 332 96 152 176 200 264 282 302 291 268 196 230 180 221
137 134 134 131 134 129 110 132 131 77 131 151 149 146 143 184 223 197 181 164 145 122 86 47 53 41 321 339 9 15 71 111 207 201 215 246 255 240 249 199 228 201 235
133 137 139 133 138 132 123 106 114 128 132 135 149 151 270 117 135 160 200 203 182 161 94 103 152 222 245 225 229 223 199 215 229 220 237 247 258 255 253 207 222 209 243
135 132 127 132 132 135 131 131 126 109 111 103 112 118 115 137 118 137 151 174 185 207 177 176 195 186 231 239 252 236 236 225 207 210 235 235 237 244 245 247 236 240 246
119 126 133 127 128 127 136 129 129 137 133 92 55 96 93 96 135 178 187 183 71 311 184 224 203 200 214 227 226 223 231 241 221 232 232 240 236 242 237 239 243 250 253
121 116 113 110 106 109 106 104 109 114 111 116 62 72 41 101 131 108 92 130 179 195 202 203 226 214 196 212 222 233 231 233 242 242 230 220 233 235 245 247 246 241 247
96 109 112 120 117 115 115 116 119 119 121 129 123 139 316 62 49 57 71 82 63 322 285 247 270 279 293 280 253 253 252 242 236 241 247 245 226 225 246 246 243 252 248
107 101 109 110 108 118 125 110 107 104 123 118 99 150 124 95 80 63 47 40 37 30 18 23 22 21 26 29 14 353 334 307 284 258 242 233 225 233 233 244 250 243 247
107 104 92 102 109 91 89 94 97 105 99 101 61 44 69 64 52 63 58 44 35 31 34 25 12 358 15 25 347 334 314 299 303 303 292 266 253 255 247 245 237 249 260
97 106 102 93 91 89 81 75 91 96 95 88 83 82 61 65 59 35 35 34 29 24 22 46 22 341 327 338 10 6 330 305 311 316 304 301 272 252 236 251 249 250 244
94 92 94 92 89 89 91 107 96 78 72 80 78 71 65 72 66 50 32 20 28 356 355 342 334 317 320 318 302 283 268 267 254 257 276 286 286 274 261 261 271 264 260
86 87 89 94 94 98 107 91 86 85 98 102 79 78 34 50 27 328 340 342 316 306 307 307 289 286 281 294 289 297 284 290 267 260 255 252 257 258 262 268 277 263 250
90 86 92 98 98 94 107 107 95 92 98 114 109 122 195 276 273 291 286 275 274 277 292 288 290 289 297 282 294 303 296 303 298 269 256 241 248 241 256 258 258 255 244